Terminal Aerodrome Forecast
Issued by NWS Pittsburgh, PA

Current Version | Previous Version | Text Only | Print | Product List | Glossary Off
Versions: 1 2 3 4 5 6 7 8 9 10 11 12 13 14 15 16 17 18 19 20 21 22 23 24 25 26 27 28 29

000
FTUS41 KPBZ 221128
TAFPIT
TAF
KPIT 221128Z 2212/2318 23005KT P6SM SCT050 BKN100
     FM221900 21007KT P6SM VCTS BKN040CB
     FM222200 22009KT P6SM BKN050
     FM230800 20007KT P6SM -RA OVC025=

USA.gov is the U.S. government's official web portal to all federal, state and local government web resources and services.